Home > Time Zones > World Clock > Weather > India > Theni > Past weeks

Flag for India Weather past 2 weeks in Theni, Tamil Nadu, India

Now
88 °F

Scattered clouds.


Feels Like: 88 °F
Forecast: 72 / 92 °F
Wind: 2 mph from North

Location: Coimbatore / Peelamedu

Current Time: Mar 6, 2015 at 1:55:29 PM

Latest Report: Mar 6, 2015 at 1:30 PM


Visibility: 5 mi

Pressure: 29.95 "Hg

Humidity: 43%

Dew point: 63 °F

Location of TheniLocation

Historic Weather in Theni — Graph

°F

Theni temperature yesterday

Maximum temperature yesterday: 93 °F (at 3:30 PM)
Minimum temperature yesterday: 73 °F (at 4:30 AM)
Average temperature yesterday: 85 °F

Past Weeks' High & Low Weather Summary

 TemperatureHumidityPressure
High93 °F (Feb 25, 3:00 PM)94% (Feb 27, 7:00 AM)30.09 "Hg (Feb 27, 7:00 AM)
Low66 °F (Feb 24, 6:30 AM)9% (Feb 23, 4:30 PM)29.80 "Hg (Feb 26, 3:30 PM)
Average82 °F54%29.93 "Hg
* Reported Feb 19 11:30 AM — Mar 6 12:00 Noon, Theni, Weather by CustomWeather, © 2015

Note: Actual official high and low records may vary slightly from our data, if they occured in-between our weather recording intervals... More about our weather records

Advertising

Theni weather history for previous 24 hours

 ConditionsComfort  
Time TempWeatherWind HumidityBarometerVisibility
12:00 PM
Fri, Mar 6
88 °FScattered clouds.3 mph49%30.04 "Hg5 mi
11:30 AM86 °FScattered clouds.7 mph52%30.04 "Hg4 mi
10:30 AM81 °FScattered clouds.10 mph66%30.07 "Hg4 mi
10:00 AM79 °FScattered clouds.7 mph74%30.07 "Hg3 mi
9:00 AM77 °FBroken clouds.5 mph79%30.07 "Hg3 mi
8:30 AM77 °FBroken clouds.6 mph79%30.04 "Hg2 mi
7:30 AM77 °FBroken clouds.6 mph79%30.04 "Hg2 mi
7:00 AM77 °FPartly cloudy.7 mph79%30.01 "Hg2 mi
6:30 AM75 °FPartly cloudy.9 mph78%29.98 "Hg2 mi
6:00 AM77 °FPassing clouds.9 mph79%29.98 "Hg2 mi
5:30 AM77 °FPassing clouds.7 mph79%29.98 "Hg2 mi
5:00 AM75 °FPassing clouds.5 mph78%29.98 "Hg2 mi
4:30 AM75 °FPassing clouds.7 mph74%29.95 "Hg2 mi
4:00 AM75 °FPassing clouds.7 mph74%29.95 "Hg2 mi
3:30 AM75 °FPassing clouds.6 mph74%29.95 "Hg2 mi
2:30 AM75 °FPassing clouds.7 mph74%29.95 "Hg2 mi
1:30 AM79 °FPassing clouds.No wind70%29.95 "Hg3 mi
12:30 AM79 °FPassing clouds.5 mph74%29.98 "Hg3 mi
11:30 PM
Thu, Mar 5
81 °FPassing clouds.7 mph70%29.98 "Hg3 mi
11:00 PM82 °FPassing clouds.7 mph66%29.98 "Hg3 mi
10:30 PM82 °FPassing clouds.7 mph62%29.98 "Hg3 mi
10:00 PM82 °FPassing clouds.7 mph62%29.98 "Hg3 mi
9:30 PM84 °FPassing clouds.5 mph58%29.98 "Hg3 mi
8:30 PM86 °FPassing clouds.5 mph49%29.92 "Hg4 mi
8:00 PM86 °FPassing clouds.5 mph46%29.92 "Hg4 mi
7:30 PM88 °FPassing clouds.5 mph43%29.89 "Hg4 mi
7:00 PM88 °FPassing clouds.5 mph46%29.89 "Hg4 mi
6:30 PM88 °FPassing clouds.5 mph46%29.89 "Hg4 mi
6:00 PM90 °FPassing clouds.9 mph43%29.86 "Hg4 mi
5:30 PM90 °FPassing clouds.9 mph41%29.86 "Hg5 mi
5:00 PM91 °FPassing clouds.10 mph41%29.86 "Hg5 mi
4:30 PM91 °FScattered clouds.9 mph41%29.86 "Hg5 mi
4:00 PM93 °FScattered clouds.3 mph39%29.86 "Hg5 mi
3:30 PM93 °FScattered clouds.7 mph36%29.86 "Hg5 mi
2:30 PM91 °FPassing clouds.6 mph38%29.89 "Hg5 mi
2:00 PM91 °FPassing clouds.7 mph38%29.92 "Hg5 mi
1:30 PM91 °FPassing clouds.9 mph38%29.92 "Hg4 mi
1:00 PM91 °FPassing clouds.7 mph38%29.95 "Hg4 mi
Weather by CustomWeather, © 2015

See weather overviewHow to use our weather pages